This is the latest recevied weather packets stored in our database for station/object K5UTC. If no packets are shown the sender has not sent any weather packets the latest 10 day(s).
| Time | Temp. | Humidity | Pressure | Rain* | Wind** | Luminosity | Snow |
|---|---|---|---|---|---|---|---|
| 1788137947 | 78° F | 89% | 763.3 mmHg | 0 in | - | 0 W/m² | - |
| 1788137643 | 78° F | 90% | 763.3 mmHg | 0 in | - | 0 W/m² | - |
| 1788137337 | 78° F | 90% | 763.3 mmHg | 0 in | - | 0 W/m² | - |
| 1788137034 | 78° F | 90% | 763.4 mmHg | 0 in | - | 0 W/m² | - |
| 1788136729 | 78° F | 90% | 763.3 mmHg | 0 in | - | 0 W/m² | - |
| 1788136425 | 78° F | 89% | 763.1 mmHg | 0 in | - | 0 W/m² | - |
| 1788136124 | 79° F | 89% | 763.1 mmHg | 0 in | - | 0 W/m² | - |
| 1788135823 | 79° F | 89% | 763.1 mmHg | 0 in | - | 1 W/m² | - |
| 1788135519 | 80° F | 89% | 763.2 mmHg | 0 in | - | 2 W/m² | - |
| 1788135219 | 80° F | 88% | 763.2 mmHg | 0 in | - | 4 W/m² | - |
| 1788134917 | 81° F | 88% | 763.1 mmHg | 0 in | - | 6 W/m² | - |
| 1788134612 | 81° F | 87% | 763.1 mmHg | 0 in | - | 9 W/m² | - |
| 1788134310 | 81° F | 86% | 763.1 mmHg | 0 in | - | 13 W/m² | - |
| 1788134005 | 82° F | 85% | 763 mmHg | 0 in | - | 16 W/m² | - |
| 1788133701 | 82° F | 84% | 763.1 mmHg | 0 in | - | 20 W/m² | - |
| 1788133396 | 83° F | 84% | 763.1 mmHg | 0 in | - | 23 W/m² | - |
| 1788133092 | 83° F | 82% | 763.1 mmHg | 0 in | - | 26 W/m² | - |
| 1788132787 | 84° F | 83% | 763.2 mmHg | 0 in | - | 29 W/m² | - |
| 1788132483 | 84° F | 83% | 763.1 mmHg | 0 in | - | 32 W/m² | - |
| 1788132178 | 84° F | 83% | 763.2 mmHg | 0 in | - | 35 W/m² | - |
| 1788131875 | 85° F | 82% | 763.3 mmHg | 0 in | - | 38 W/m² | - |
| 1788131574 | 85° F | 82% | 763.1 mmHg | 0 in | - | 40 W/m² | - |
| 1788131269 | 85° F | 84% | 763.3 mmHg | 0 in | - | 42 W/m² | - |
| 1788130964 | 85° F | 82% | 763.2 mmHg | 0 in | - | 47 W/m² | - |
| 1788130664 | 85° F | 79% | 763.3 mmHg | 0 in | - | 47 W/m² | - |
* Rain latest hour (hover to see other rain measurements)
** Current wind speed in m/s (hover to see current wind gust speed)